Погода в Огбомошо

Нигерия     8°08′08″N   4°14′14″E
темп.,
°C
ветер,
м/с
пор.,
м/с
влажн.,
%
обл.,
%
осадки,
мм/ч
давл.,
гПа
погр.,
м
16 июня, ср
ср1601:00+22ююз3996100 2.1 1014342
04:00+22ююв1198100 7.3 101479
07:00+22ссв3889100 8.8 1014310
10:00+25ссз2573100 0.0 1012132
13:00+30ююв3348100 0.0 1011467
16:00+33вюв333946 0.0 10091478
19:00+27с116763 0.0 100929
22:00+23ююз499257 0.1 1014492
17 июня, чт
чт1701:00+23ююз3892100 0.3 1014594
04:00+22юз389560 0.1 1014488
07:00+23юз3890100 0.1 1014510
10:00+27юз456989 0.0 1015961
13:00+31юз3252100 0.0 10131728
16:00+31ю325224 0.1 10111205
19:00+27ю596983 0.1 1012414
22:00+23ююз3890100 0.1 1015366
18 июня, пт
пт1801:00+22ююз289590 0.1 1015418
04:00+22ююз3898100 0.0 1014350
07:00+22юз1496100 0.1 1015188
10:00+26з227837 2.0 1017731
13:00+31юз335549 2.1 10131526
16:00+32ююз3348100 0.0 10101837
19:00+27ююз4972100 0.2 1012415
22:00+25ююз498446 0.1 1014499
19 июня, сб
сб1901:00+23ююз379262 0.1 1014513
04:00+22юз279557 0.1 1014429
07:00+22юз3798100 1.2 1015311
10:00+25юз4581100 0.0 1016620
13:00+29ююв1167100 1.7 1014906
16:00+29ю116298 1.5 1012986
19:00+26ю367674 1.5 1012233
22:00+23ю38915 0.0 1015339
20 июня, вс
вс2001:00+23ююз389490 0.0 1016467
04:00+23юз2594100 0.0 1014335
07:00+23с129499 1.4 101665
10:00+26зсз2174100 0.1 1016502
13:00+31св344981 0.1 10131604
16:00+33св134474 0.0 10102072
19:00+24ююз4988100 1.4 1012257
22:00+23ююз41094100 0.1 1014485